Tracking 30995 objects as of 7-Jul-2025
HD Live streaming from Space Station
objects crossing your sky now

ONEWEB-0425

Track ONEWEB-0425 now!
10-day predictions
ONEWEB-0425 is classified as:


NORAD ID: 51628
Int'l Code: 2022-012G
Perigee: 1,227.6 km
Apogee: 1,230.1 km
Inclination: 87.9 °
Period: 109.9 minutes
Semi major axis: 7599 km
RCS: Unknown
Launch date: February 10, 2022
Source: United Kingdom (UK)
Launch site: FRENCH GUIANA (FRGUI)
Your satellite tracking list
STARLINK-31313
Track 1 satellite(s)




NASA's NSSDC Master Catalog

Two Line Element Set (TLE):
1 51628U 22012G   25187.28450500  .00000290  00000-0  79359-3 0  9993
2 51628  87.8830 105.2428 0001638  78.3197 281.8114 13.10375941164025
Source of the keplerian elements: AFSPC